TimeCDT,TemperatureF,Dew PointF,Humidity,Sea Level PressureIn,VisibilityMPH,Wind Direction,Wind SpeedMPH,Gust SpeedMPH,PrecipitationIn,Events,Conditions,WindDirDegrees,DateUTC
12:52 AM,43.0,41.0,93,29.98,-9999.0,SE,3.5,-,N/A,,Unknown,130,2013-09-21 05:52:00
1:52 AM,43.0,41.0,93,29.98,-9999.0,SE,6.9,-,N/A,,Unknown,130,2013-09-21 06:52:00
2:52 AM,43.0,41.0,93,29.97,-9999.0,ESE,6.9,-,N/A,,Unknown,120,2013-09-21 07:52:00
3:52 AM,44.1,41.0,89,29.96,-9999.0,SE,4.6,-,N/A,,Unknown,130,2013-09-21 08:52:00
4:52 AM,43.0,39.9,89,29.96,-9999.0,East,4.6,-,N/A,,Unknown,100,2013-09-21 09:52:00
5:52 AM,44.1,41.0,89,29.96,-9999.0,ESE,8.1,-,N/A,,Unknown,120,2013-09-21 10:52:00
6:52 AM,43.0,39.9,89,29.95,-9999.0,ESE,8.1,-,N/A,,Unknown,120,2013-09-21 11:52:00
7:52 AM,44.1,41.0,89,29.96,-9999.0,ESE,8.1,-,N/A,,Unknown,120,2013-09-21 12:52:00
8:52 AM,46.9,43.0,86,29.95,-9999.0,SE,9.2,-,N/A,,Unknown,130,2013-09-21 13:52:00
9:52 AM,52.0,44.1,74,29.93,-9999.0,SSE,11.5,-,N/A,,Unknown,150,2013-09-21 14:52:00
10:52 AM,57.0,43.0,59,29.91,-9999.0,SE,12.7,-,N/A,,Unknown,130,2013-09-21 15:52:00
11:52 AM,63.0,42.1,46,29.89,-9999.0,SE,15.0,-,N/A,,Unknown,140,2013-09-21 16:52:00
12:52 PM,66.0,39.9,38,29.87,-9999.0,SSE,17.3,-,N/A,,Unknown,150,2013-09-21 17:52:00
1:52 PM,68.0,39.9,36,29.84,-9999.0,SE,15.0,24.2,N/A,,Unknown,130,2013-09-21 18:52:00
2:52 PM,71.1,41.0,34,29.80,-9999.0,SSE,16.1,21.9,N/A,,Unknown,160,2013-09-21 19:52:00
3:52 PM,73.0,42.1,33,29.76,-9999.0,SE,19.6,25.3,N/A,,Unknown,140,2013-09-21 20:52:00
4:52 PM,73.0,43.0,34,29.75,-9999.0,SSE,13.8,23.0,N/A,,Unknown,160,2013-09-21 21:52:00
5:52 PM,71.1,43.0,36,29.73,-9999.0,SE,18.4,-,N/A,,Unknown,140,2013-09-21 22:52:00
6:52 PM,68.0,44.1,42,29.73,-9999.0,SE,12.7,19.6,N/A,,Unknown,140,2013-09-21 23:52:00
7:52 PM,62.1,46.0,56,29.73,-9999.0,SE,10.4,-,N/A,,Unknown,130,2013-09-22 00:52:00
8:52 PM,59.0,46.9,64,29.74,-9999.0,ESE,10.4,-,N/A,,Unknown,110,2013-09-22 01:52:00
9:52 PM,57.9,46.0,65,29.73,-9999.0,ESE,12.7,-,N/A,,Unknown,110,2013-09-22 02:52:00
10:52 PM,55.0,45.0,69,29.73,-9999.0,ESE,10.4,-,N/A,,Unknown,120,2013-09-22 03:52:00
11:52 PM,54.0,45.0,72,29.70,-9999.0,ESE,11.5,-,N/A,,Unknown,120,2013-09-22 04:52:00